AirNav   Air Wisconsin pilot careers
 
 1182 users online  

12J Brewton Municipal Airport
Brewton, Alabama, USA

GOING TO BREWTON?


FAA INFORMATION EFFECTIVE 11 OCTOBER 2018

Location

FAA Identifier: 12J
Lat/Long: 31-03-03.0000N / 087-03-57.5000W
31-03.050000N / 087-03.958333W
31.0508333 / -87.0659722
(estimated)
Elevation: 98.7 ft. / 30.1 m (surveyed)
Variation: 01W (2000)
From city: 3 miles S of BREWTON, AL
Time zone: UTC -5 (UTC -6 during Standard Time)
Zip code: 36426

Airport Operations

Airport use: Open to the public
Activation date: 06/1944
Control tower: no
ARTCC: JACKSONVILLE CENTER
FSS: ANNISTON FLIGHT SERVICE STATION
NOTAMs facility: ANB (NOTAM-D service available)
Attendance: MON-FRI 0730-1700, ALL SAT 0830-1700
AFTER HRS CALL 251-867-9997.
Wind indicator: lighted
Segmented circle: yes
Lights: ACTVT MIRL RY 12/30 & PAPI RYS 12 & 30 - CTAF.
Beacon: white-green (lighted land airport)
Operates sunset to sunrise.

Airport Communications

CTAF/UNICOM: 122.725
WX AWOS-3PT: 119.325 (251-809-2987)
PENSACOLA APPROACH: 127.35
PENSACOLA DEPARTURE: 127.35

Nearby radio navigation aids

VOR radial/distance  VOR name  Freq  Var
CEWr301/24.0CRESTVIEW VORTAC115.9003E
MVCr145/28.6MONROEVILLE VORTAC116.8004E
NUNr021/(37.4)SAUFLEY VOR108.8001E

 
NDB name  Hdg/Dist  Freq  Var  ID
PICKENS011/37.332602WPKZ .--. -.- --..
JUDD248/37.926402WJUY .--- ..- -.--

Airport Services

Fuel available: 100LL JET-A+
Parking: hangars and tiedowns
Airframe service: MAJOR
Powerplant service: MAJOR
Bottled oxygen: NONE
Bulk oxygen: NONE

Runway Information

Runway 6/24

Dimensions: 5136 x 150 ft. / 1565 x 46 m
Surface: asphalt, in good condition
Weight bearing capacity: 
Single wheel: 40.0
Double wheel: 60.0
Runway edge markings: RWY 06/24 MARKINGS FADED.
RUNWAY 6  RUNWAY 24
Latitude: 31-02.998458N31-03.384532N
Longitude: 087-04.547052W087-03.671163W
Elevation: 80.9 ft.83.3 ft.
Gradient: 0.1%0.1%
Traffic pattern: leftleft
Runway heading: 064 magnetic, 063 true244 magnetic, 243 true
Markings: nonprecision, in fair conditionnonprecision, in fair condition
Touchdown point: yes, no lightsyes, no lights
Obstructions: 6 ft. tree, 245 ft. from runway, 17 ft. left of centerline, 6:1 slope to clear91 ft. trees, 1279 ft. from runway, 175 ft. right of centerline, 11:1 slope to clear

Runway 12/30

Dimensions: 5001 x 150 ft. / 1524 x 46 m
Surface: asphalt, in good condition
Weight bearing capacity: 
Single wheel: 40.0
Double wheel: 60.0
Runway edge lights: medium intensity
Runway edge markings: RWY 12/30 MARKINGS FADED.
RUNWAY 12  RUNWAY 30
Latitude: 31-03.095263N31-02.684428N
Longitude: 087-04.376372W087-03.545480W
Elevation: 81.9 ft.98.7 ft.
Gradient: 0.3%0.3%
Traffic pattern: leftleft
Runway heading: 121 magnetic, 120 true301 magnetic, 300 true
Markings: nonprecision, in fair conditionnonprecision, in fair condition
Visual slope indicator: 2-light PAPI on left (3.00 degrees glide path)2-light PAPI on left (3.00 degrees glide path)
Touchdown point: yes, no lightsyes, no lights
Obstructions: 47 ft. trees, 1191 ft. from runway, 116 ft. left of centerline, 20:1 slope to clearnone

Airport Ownership and Management from official FAA records

Ownership: Publicly-owned
Owner: CITY OF BREWTON
PO BOX 368
BREWTON, AL 36427
Phone 251-867-3281
Manager: EARL LAMBERT
205 AIRPORT DRIVE
BREWTON, AL 36426
Phone 251-867-9997

Airport Operational Statistics

Aircraft based on the field: 28
Single engine airplanes: 18
Multi engine airplanes: 3
Helicopters: 7
    
Aircraft operations: avg 453/day *
91% military
4% transient general aviation
4% local general aviation
1% air taxi
* for 12-month period ending 01 March 2017

Additional Remarks

MIL TRNG ACFT MONTR UNICOM AND YIELD TO ALL CIV OPNS.
USN PILOT TRNG FM WHITING FLD.
MIL ACFT RQR PRIOR CDN WITH NAS WHITING FLD, DSN 868-7654, C850-623-7645.

Instrument Procedures

NOTE: All procedures below are presented as PDF files. If you need a reader for these files, you should download the free Adobe Reader.

NOT FOR NAVIGATION. Please procure official charts for flight.
FAA instrument procedures published for use from 11 October 2018 at 0901Z to 8 November 2018 at 0900Z.

 
IAPs - Instrument Approach Procedures
RNAV (GPS) RWY 06   download (173KB)
RNAV (GPS) RWY 12   download (227KB)
RNAV (GPS) RWY 24   download (177KB)
RNAV (GPS) RWY 30   download (226KB)
VOR/DME RWY 30   download (194KB)
NOTE: Special Take-Off Minimums/Departure Procedures apply   download (189KB)

Other nearby airports with instrument procedures:

0R1 - Atmore Municipal Airport (20 nm W)
KNSE - Whiting Field Naval Air Station North (20 nm S)
KNDZ - Whiting Field Naval Air Station South (21 nm S)
KGZH - Evergreen Regional Airport/Middleton Field (22 nm N)
2R4 - Peter Prince Field Airport (25 nm S)
 
Loc | Ops | Rwys | IFR | FBO | Links
Com | Nav | Svcs | Stats | Notes


 
Area around 12J (Brewton Municipal Airport)
 
Road maps at: MapQuest Bing Google
 
Aerial photo
WARNING: Photo may not be current or correct
Aerial photo of 12J (Brewton Municipal Airport)
Photo by Ryan Hegerty, 11-Jan-2004

Do you have a better or more recent aerial photo of Brewton Municipal Airport that you would like to share? If so, please send us your photo.

 
Sectional chart

 
Airport distance calculator
Flying to Brewton Municipal Airport? Find the distance to fly.

From to 12J

Sunrise and sunset
Times for 15-Oct-2018
 Local
(UTC-5)
 Zulu
(UTC)
Morning civil twilight06:2811:28
Sunrise06:5211:52
Sunset18:1623:16
Evening civil twilight18:4123:41

Current date and time
Zulu (UTC)  15-Oct-2018 22:17:42
Local (UTC-5)  15-Oct-2018 17:17:42
 
METAR
KNSE 
20nm S 
152156Z 16009KT 10SM SCT030 SCT090 29/24 A3005 RMK AO2 SLP159 T02890239 $
KNDZ 
21nm S 
152056Z 16008KT 10SM FEW030 SCT250 30/23 A3005 RMK SLP159 T03000233 55012
KGZH 
22nm N 
152153Z AUTO 27003KT 10SM OVC100 31/22 A3005 RMK AO2 SLP172 T03110222
2R4 
25nm S 
SuperAWOS
152155Z AUTO 22006KT 29/24 A3004
KCEW 
33nm SE 
152153Z AUTO 19007KT 10SM CLR 30/22 A3006 RMK AO2 SLP176 T03000222
KPNS 
35nm S 
152153Z 14008KT 10SM SCT020 29/24 A3004 RMK AO2 SLP174 T02890239
K79J 
38nm NE 
152156Z AUTO 00000KT 10SM FEW100 31/23 A3005 RMK AO2 SLP172 T03060228
KEGI 
38nm SE 
152155Z 18009KT 10SM FEW030 SCT090 30/22 A3005 RMK AO2A SLP175 T02990220 $
K0J4 
39nm E 
152058Z AUTO 22006KT 10SM SCT039 BKN055 32/21 A3006 RMK AO2 SLP176 T03170211 55010
TAF
KNSE 
20nm S 
1515/1615 VRB06KT 9999 SCT030 SCT250 QNH3003INS FM151700 18008KT 9999 VCSH SCT030 BKN250 QNH3000INS TEMPO 1518/1600 8000 -SHRA FM160100 VRB06KT 9999 SCT030 BKN250 QNH3004INS TEMPO 1609/1613 6000 BR SCT010 OVC200 T29/1520Z T22/1609Z FN00172
NOTAMs
Click for the latest NOTAMs
NOTAMs are issued by the DoD/FAA and will open in a separate window not controlled by AirNav.

 

 
 

FBO, Fuel Providers, and Aircraft Ground Support

  
 Business Name 
 
 Contact 
 
 Services / Description 
 
Fuel Prices
 
Comments
  
Aviation Specialists LLC 251-867-9997
[email]
Airport management, Aviation fuel, Aircraft ground handling, Aircraft parking (ramp or tiedown), Hangars, Hangar leasing / sales, GPU / Power cart, ...

More info about Aviation Specialists LLC
Shell
100LL Jet A
FS $5.17 $4.23 
GUARANTEED
 
   3 read write
FS=Full service
Update Fuel Prices
 

Would you like to see your business listed on this page?

 If your business provides an interesting product or service to pilots, flight crews, aircraft, or users of the Brewton Municipal Airport, you should consider listing it here.  To start the listing process, click on the button below
 
Add a business
 

Other Pages about Brewton Municipal Airport

www.brewtonchamber.com/Resources.htm#airport
 
Update a link
 
Copyright © AirNav, LLC. All rights reserved. Privacy Policy  Contact